Date,TemperatureHighF,TemperatureAvgF,TemperatureLowF,DewpointHighF,DewpointAvgF,DewpointLowF,HumidityHigh,HumidityAvg,HumidityLow,PressureMaxIn,PressureMinIn,WindSpeedMaxMPH,WindSpeedAvgMPH,GustSpeedMaxMPH,PrecipitationSumIn
2012-6-14,81.0,70.6,57.0,40.1,32.9,24.1,48,27,14,30.01,29.93,14,4,14,0.00
2012-6-15,80.4,65.0,48.4,40.5,33.0,16.6,71,34,10,30.20,29.95,15,4,15,0.00
2012-6-16,75.7,63.8,38.3,49.4,29.2,18.8,94,39,13,30.20,30.10,15,5,15,0.00
2012-6-17,75.7,75.7,75.7,21.5,21.5,21.5,13,13,13,30.10,30.10,7,7,8,0.00
2012-6-18,83.3,70.4,0.0,38.7,26.8,16.6,51,22,10,30.26,29.90,16,5,16,1.99
2012-6-19,71.4,56.1,43.7,42.1,37.6,34.5,74,52,30,30.10,29.73,14,4,14,1.00
2012-6-20,82.8,61.4,45.5,45.0,38.8,28.3,80,49,15,30.03,29.90,11,2,11,0.00
2012-6-21,87.8,66.1,39.7,49.9,41.0,23.6,89,48,11,29.99,29.81,24,4,24,0.00
2012-6-22,83.5,65.1,46.8,54.0,50.1,43.1,89,61,33,29.82,29.64,14,3,14,0.00
2012-6-23,90.5,70.3,50.9,60.6,55.9,48.5,94,63,35,29.75,29.59,19,4,19,0.00
2012-6-24,90.0,72.0,51.8,64.5,58.5,50.4,97,66,38,29.84,29.71,20,4,20,0.00
2012-6-25,91.4,76.6,59.7,65.4,62.6,57.7,94,65,39,29.84,29.57,18,4,18,0.00
2012-6-26,82.0,69.6,54.0,62.4,48.7,27.9,85,53,18,29.81,29.44,30,6,30,0.01
2012-6-27,82.4,68.4,51.8,33.9,27.3,15.7,47,24,10,29.90,29.84,21,6,21,0.00
2012-6-28,99.7,71.7,41.0,41.7,32.3,23.2,73,32,10,29.93,29.76,18,3,18,0.00
2012-6-29,91.4,72.3,50.9,48.0,40.3,24.9,70,36,10,29.90,29.82,17,3,17,0.00
2012-6-30,99.0,74.7,49.1,52.2,43.1,32.4,80,40,11,29.93,29.71,15,3,15,0.00
2012-7-1,91.0,71.5,52.3,57.3,47.8,41.1,79,48,20,29.83,29.69,19,3,19,0.01
2012-7-2,96.3,72.9,45.9,54.7,45.0,32.3,96,47,12,29.90,29.68,15,3,15,0.00
2012-7-3,87.6,71.4,51.4,51.9,41.6,24.9,77,39,16,29.83,29.56,21,5,21,0.35
2012-7-4,90.9,71.0,53.8,26.7,21.7,14.0,31,17,10,29.88,29.77,18,6,18,0.00
2012-7-5,87.8,67.5,43.7,46.1,32.8,22.7,57,30,11,29.90,29.80,12,2,12,0.00
2012-7-6,97.0,71.1,51.3,64.5,45.8,26.9,89,52,10,30.04,29.89,22,3,22,0.25
2012-7-7,97.9,71.5,48.6,64.5,50.0,36.3,98,57,13,30.10,29.99,17,3,17,0.02
2012-7-8,103.6,77.3,51.4,55.4,44.1,27.4,91,42,10,30.08,29.98,17,3,17,0.00
2012-7-9,106.9,81.3,53.1,61.7,44.1,27.5,81,37,10,30.05,29.91,21,3,21,0.01
2012-7-10,100.6,81.0,60.3,56.0,42.3,27.4,67,32,10,29.98,29.84,17,3,17,0.00
2012-7-11,101.3,69.0,53.8,53.5,44.7,27.4,75,49,10,29.95,29.85,17,2,17,0.00
2012-7-12,106.2,79.8,52.5,52.4,38.7,22.6,72,32,10,29.94,29.79,14,3,14,0.00
2012-7-13,92.8,76.1,56.1,61.7,50.4,32.3,93,42,25,29.98,29.85,17,3,18,0.02
2012-7-14,88.5,72.5,62.6,66.7,61.7,53.6,96,72,36,29.95,29.75,11,2,11,0.02
2012-7-15,88.5,71.7,62.4,60.6,58.0,48.5,93,65,30,29.81,29.69,20,5,20,0.04
2012-7-16,86.9,71.2,60.1,62.6,58.5,52.4,95,70,33,29.98,29.81,17,3,17,0.38
2012-7-17,94.8,74.5,54.5,64.4,55.9,47.1,99,60,21,29.85,29.70,17,3,17,0.00
2012-7-18,71.8,71.8,71.8,56.7,56.7,56.7,59,59,59,29.83,29.83,4,4,9,0.00
2012-7-19,103.1,72.6,55.0,53.3,45.8,24.8,76,46,10,29.96,29.83,12,2,13,0.00
2012-7-20,100.6,89.2,78.1,53.3,45.0,32.8,42,24,11,29.97,29.84,15,5,15,0.00
2012-7-21,98.8,82.1,61.9,53.2,45.5,26.3,44,31,10,29.95,29.88,18,3,18,0.00
2012-7-22,98.2,77.2,48.6,49.3,38.9,27.4,74,33,10,30.00,29.83,23,4,23,0.00
2012-7-23,97.2,78.3,55.6,56.0,37.1,12.1,71,31,10,29.88,29.76,21,4,21,0.00
2012-7-24,90.5,72.3,50.9,42.9,25.9,15.1,44,21,10,29.90,29.77,21,5,21,0.00
2012-7-25,93.2,72.3,46.4,48.3,42.1,17.4,77,39,13,29.94,29.84,16,4,16,0.30
2012-7-26,87.6,71.0,49.3,53.3,48.9,42.9,84,49,28,30.01,29.88,24,3,24,0.00
2012-7-27,99.0,78.3,54.7,61.6,47.0,28.4,90,40,10,29.95,29.78,20,4,20,0.09
2012-7-28,99.9,77.9,52.7,58.8,45.0,27.8,93,42,10,29.94,29.83,19,4,19,0.01
2012-7-29,102.0,79.4,54.5,51.1,41.1,26.6,73,33,10,30.01,29.85,17,4,17,0.00
2012-7-30,105.3,77.3,50.7,50.9,38.6,27.0,72,32,10,29.95,29.76,24,3,24,0.00
2012-7-31,101.1,77.8,51.8,48.4,36.9,21.4,70,30,10,29.96,29.82,18,3,18,0.00
2012-8-1,98.1,75.8,51.8,50.4,36.5,21.8,66,30,10,29.99,29.84,18,4,18,0.00
2012-8-2,88.5,68.9,48.0,51.5,34.1,19.5,68,35,10,29.94,29.79,17,4,17,0.00
2012-8-3,79.5,61.5,43.3,51.8,41.8,32.4,99,55,20,30.04,29.94,17,4,17,0.06
2012-8-4,95.4,67.6,39.2,47.9,35.8,23.2,90,43,10,30.06,29.93,14,3,14,0.00
2012-8-5,106.0,75.8,44.6,41.3,34.3,23.6,68,30,10,29.98,29.86,14,3,14,0.00
2012-8-6,99.9,75.6,51.3,46.0,39.1,29.3,63,32,10,30.01,29.93,11,2,11,0.00
2012-8-7,103.1,78.7,50.9,50.2,36.1,18.8,73,30,10,30.05,29.93,21,3,21,0.00
2012-8-8,106.3,76.4,49.5,52.5,35.9,23.4,53,28,10,30.03,29.85,21,3,21,0.00
2012-8-9,102.4,78.9,57.0,52.2,41.0,27.5,69,33,10,30.06,29.88,16,4,16,0.00
2012-8-10,91.0,74.1,55.0,53.3,45.5,37.3,69,39,18,29.93,29.78,15,3,15,0.00
2012-8-11,84.0,75.0,70.2,52.9,51.6,47.4,49,45,28,29.99,29.85,12,4,12,0.14
2012-8-12,94.1,73.5,50.7,55.3,49.6,39.2,90,49,17,30.06,29.88,15,3,15,0.00
2012-8-13,100.2,75.1,50.9,55.2,45.3,31.6,86,43,10,29.93,29.79,16,3,16,0.00
2012-8-14,98.1,75.3,51.6,54.4,38.2,23.7,91,37,10,29.98,29.66,25,5,27,0.01
2012-8-15,61.9,53.6,45.0,53.4,49.8,43.5,99,88,60,30.14,29.98,11,2,11,0.58
2012-8-16,90.3,62.1,38.3,51.8,42.8,25.2,99,61,10,30.11,29.89,12,2,12,0.00
2012-8-17,95.0,67.9,41.7,50.0,37.3,19.7,96,46,10,30.01,29.92,14,3,14,0.00
2012-8-18,94.8,70.1,43.2,48.3,35.7,24.7,87,39,10,30.06,29.90,18,3,18,0.00
2012-8-19,99.0,71.8,45.0,48.1,36.9,24.3,81,38,10,29.95,29.79,12,2,12,0.00
2012-8-20,99.5,73.1,47.7,46.9,37.9,26.7,77,36,10,29.92,29.83,17,2,17,0.00
2012-8-21,100.2,71.5,52.5,62.1,46.4,28.5,91,51,10,29.89,29.68,21,2,21,0.08
2012-8-22,93.0,72.7,54.3,58.9,42.0,21.7,92,44,10,29.85,29.77,17,4,17,0.01
2012-8-23,94.1,68.5,43.0,45.8,31.9,19.7,79,36,10,29.83,29.66,22,3,22,0.00
2012-8-24,77.0,66.9,45.1,35.7,21.9,9.7,62,23,10,29.84,29.71,26,7,26,0.00
2012-8-25,76.6,76.6,76.6,16.0,16.0,16.0,10,10,10,29.83,29.83,9,9,17,0.00
2012-8-26,76.6,76.6,76.6,16.0,16.0,16.0,10,10,10,29.83,29.83,9,9,17,0.00
2012-8-27,96.8,66.1,50.0,59.2,39.5,32.2,80,42,11,29.99,29.86,11,3,11,0.01
2012-8-28,105.6,76.2,49.3,56.0,42.0,23.6,92,43,10,29.94,29.67,14,3,14,0.00
2012-8-29,88.2,67.3,47.8,44.2,31.3,16.6,59,31,10,29.91,29.70,21,4,21,0.00
2012-8-30,91.8,65.5,41.0,36.4,28.7,15.9,66,31,10,29.95,29.77,14,3,14,0.00
2012-8-31,99.3,70.5,40.1,43.9,30.8,21.3,65,30,10,29.86,29.64,17,3,17,0.00
2012-9-1,89.4,74.6,52.3,54.5,35.8,5.0,61,30,10,29.88,29.69,20,5,20,0.00
2012-9-2,87.3,67.6,45.1,24.1,16.2,7.0,35,15,10,29.93,29.82,17,5,17,0.00
2012-9-3,85.1,65.5,43.3,32.2,21.2,10.5,51,22,10,29.96,29.83,21,4,21,0.00
2012-9-4,75.6,60.2,43.0,42.1,34.4,23.9,68,39,27,30.02,29.87,21,4,21,0.00
2012-9-5,87.8,62.2,36.3,42.6,31.6,19.9,88,44,10,29.99,29.79,24,4,24,0.00
2012-9-6,70.5,56.2,43.3,47.7,44.4,38.8,91,66,39,30.09,29.94,11,4,11,0.00
2012-9-7,91.6,59.4,32.7,47.4,33.4,13.6,99,52,10,30.14,30.05,12,2,12,0.00
2012-9-8,95.0,63.9,34.3,36.2,27.2,14.8,72,34,10,30.16,29.87,13,2,13,0.00
2012-9-9,97.2,68.8,43.3,38.3,28.2,20.3,55,28,10,29.93,29.61,15,3,15,0.00
2012-9-10,83.3,66.0,46.4,38.6,28.6,15.4,60,30,10,29.83,29.66,25,5,25,0.00
2012-9-11,71.6,57.7,45.0,31.7,18.8,4.2,44,25,10,30.05,29.83,17,5,17,0.00
2012-9-12,77.0,53.4,30.4,21.3,16.5,10.1,55,28,10,30.20,30.05,13,2,13,0.00
2012-9-13,90.3,59.4,32.9,29.9,22.1,15.9,63,31,10,30.25,30.11,11,2,11,0.00
2012-9-14,91.0,60.3,42.8,36.7,23.4,11.9,54,31,10,30.14,29.93,13,2,13,0.00
2012-9-15,84.2,62.8,42.3,32.6,25.6,14.7,47,27,10,29.99,29.94,13,3,13,0.00
2012-9-16,73.2,52.3,40.3,34.5,31.5,28.2,72,48,19,30.15,29.97,13,3,13,0.00
2012-9-17,88.3,58.7,32.7,37.2,29.4,21.1,80,42,10,30.07,29.92,11,2,11,0.00
2012-9-18,91.8,63.7,39.6,36.7,26.6,15.9,68,33,10,29.98,29.83,17,4,17,0.00
2012-9-19,90.3,65.0,37.8,36.9,29.2,21.4,71,35,10,30.08,29.93,12,2,12,0.00
2012-9-20,90.9,62.1,37.9,34.8,28.4,20.6,67,35,10,30.08,29.93,11,2,11,0.00
2012-9-21,73.4,46.2,37.8,37.6,31.1,28.4,71,57,23,30.07,30.00,6,1,6,0.00
2012-9-22,91.2,64.5,38.5,38.0,32.1,25.1,74,38,10,30.02,29.87,11,2,11,0.00
2012-9-23,77.9,63.1,39.7,39.0,36.2,30.8,73,40,21,30.00,29.92,10,2,10,0.00
2012-9-24,90.9,59.9,35.8,41.2,33.3,24.4,84,46,10,29.96,29.78,8,2,8,0.00
2012-9-25,87.3,60.4,37.8,44.4,37.4,30.6,79,48,15,29.88,29.79,11,2,11,0.00
2012-9-26,72.3,56.5,44.8,48.4,44.1,38.3,86,65,41,30.02,29.88,15,3,15,0.00
2012-9-27,50.9,46.2,34.2,45.4,41.8,33.1,97,85,80,30.03,30.01,4,1,4,0.00
2012-9-28,50.9,50.9,50.9,45.0,45.0,45.0,80,80,80,30.03,30.03,2,2,4,0.00
2012-9-29,50.9,50.9,50.9,45.0,45.0,45.0,80,80,80,30.03,30.03,2,2,4,0.00
2012-9-30,77.0,66.0,50.9,45.3,40.3,35.9,80,46,23,30.07,30.03,11,4,12,0.00
2012-10-1,85.5,76.4,69.6,35.9,32.0,20.8,25,20,10,30.06,29.76,20,6,20,0.00
2012-10-2,79.9,66.7,39.4,42.9,31.9,14.4,91,33,10,29.91,29.67,22,7,22,0.11
2012-10-3,39.0,34.7,32.7,36.6,33.8,32.3,99,97,91,30.33,29.91,10,1,13,0.71
2012-10-4,47.3,35.4,30.7,34.9,33.0,29.7,99,91,61,30.29,30.18,12,2,12,0.52
2012-10-5,51.6,34.7,26.1,37.1,28.2,22.7,99,80,33,30.25,30.19,9,2,9,0.01
2012-10-6,50.9,36.6,21.9,34.7,26.3,19.2,97,71,31,30.23,30.06,7,2,7,0.00
2012-10-7,72.9,47.2,28.0,34.7,30.1,23.7,98,60,16,30.06,29.81,14,3,14,0.00
2012-10-8,50.2,39.3,30.7,45.5,36.9,28.3,98,91,75,29.99,29.83,17,2,17,0.13
2012-10-9,68.7,45.5,33.8,45.2,34.6,22.4,99,74,19,29.99,29.88,11,2,11,0.00
2012-10-10,73.9,49.5,32.2,42.2,36.1,28.4,96,67,20,30.02,29.80,21,4,21,0.02
2012-10-11,66.6,41.2,32.0,42.9,35.3,30.9,97,83,38,30.07,29.78,11,2,11,0.05
2012-10-12,79.3,54.0,31.1,45.1,28.7,13.2,99,54,10,29.79,29.61,20,4,20,0.00
2012-10-13,69.1,56.2,47.5,42.5,39.3,32.1,74,54,35,29.99,29.72,17,4,17,0.00
2012-10-14,68.9,57.2,45.9,42.5,39.7,36.2,78,54,31,30.02,29.80,16,4,16,0.00
2012-10-15,69.4,61.3,56.1,44.9,41.6,37.3,59,49,35,29.77,29.62,16,6,16,0.00
2012-10-16,62.2,53.6,38.1,51.2,36.4,20.3,98,55,24,29.75,29.36,25,7,26,0.27
2012-10-17,58.5,42.1,27.9,29.8,22.1,9.0,89,51,14,30.07,29.75,18,4,18,0.00
2012-10-18,67.8,43.7,25.3,32.1,24.2,14.1,85,54,14,30.08,29.83,16,4,16,0.00
2012-10-19,70.5,56.1,37.2,40.5,34.9,28.8,81,47,29,29.83,29.53,23,6,23,0.00
2012-10-20,62.1,49.8,29.3,41.1,30.9,19.8,72,50,29,29.72,29.47,30,7,30,0.01
2012-10-21,60.4,39.9,26.8,26.8,19.3,6.5,78,49,12,29.77,29.71,13,2,13,0.00
2012-10-22,45.3,31.4,23.2,30.0,24.6,19.6,98,78,48,29.75,29.60,18,2,18,0.00
2012-10-23,29.1,24.6,15.8,24.9,21.6,15.1,99,88,76,29.85,29.60,13,2,13,0.00
2012-10-24,32.2,22.9,19.6,25.8,21.0,18.3,96,92,75,30.07,29.86,11,1,11,0.00
2012-10-25,32.4,23.6,14.2,22.1,18.3,12.1,94,80,58,30.25,30.07,10,3,10,0.00
2012-10-26,40.1,27.0,14.2,29.3,22.5,12.8,96,84,55,30.24,29.92,8,1,8,0.06
2012-10-27,50.4,36.0,25.7,36.3,30.7,24.7,97,82,54,29.93,29.80,11,2,11,0.01
2012-10-28,59.2,50.1,37.8,42.6,38.9,32.3,82,66,53,29.80,29.69,14,5,14,0.00
2012-10-29,65.7,54.1,40.6,44.3,40.8,34.8,94,63,43,29.87,29.73,21,5,21,0.00
2012-10-30,73.2,56.1,43.2,40.5,37.0,33.7,76,51,25,29.91,29.79,24,4,24,0.00
2012-10-31,48.4,40.0,30.6,41.0,34.7,29.6,97,82,64,29.93,29.74,8,2,8,0.00
2012-11-1,70.5,45.5,30.6,48.3,34.9,29.6,98,71,29,29.82,29.67,18,3,18,0.00
2012-11-2,64.2,45.9,30.4,40.5,32.4,26.8,92,63,27,29.98,29.82,12,3,12,0.00
2012-11-3,60.1,45.4,26.1,41.0,31.3,24.8,99,63,33,29.98,29.89,17,4,17,0.00
2012-11-4,65.5,54.9,48.2,43.5,40.9,38.4,75,60,41,30.12,29.93,15,5,15,0.00
2012-11-5,68.5,61.2,46.8,45.0,40.6,36.4,69,47,33,30.10,29.92,22,7,22,0.00
2012-11-6,70.0,53.3,40.5,41.6,36.8,33.3,83,57,28,30.06,29.74,14,3,14,0.00
2012-11-7,74.3,50.2,28.0,41.2,29.9,19.6,81,49,23,29.87,29.61,18,4,18,0.00
2012-11-8,33.1,28.2,26.6,27.0,25.8,22.2,98,91,73,29.91,29.66,17,3,17,0.00
2012-11-9,27.1,16.5,10.8,26.7,13.6,7.7,98,88,73,29.85,29.65,12,3,12,0.00
2012-11-10,20.3,7.4,-8.3,8.6,2.3,-11.7,89,80,59,29.89,29.83,8,2,8,0.00
2012-11-11,43.2,17.5,-8.7,20.0,7.1,-12.2,92,67,31,30.01,29.85,14,3,14,0.11
2012-11-12,43.7,32.8,25.7,27.4,20.6,14.7,83,61,45,30.02,29.96,20,6,20,0.01
2012-11-13,49.8,39.9,31.5,30.3,28.4,26.5,83,64,42,30.02,29.94,17,4,17,0.00
2012-11-14,57.2,40.3,25.3,32.1,28.0,23.5,95,64,35,30.06,29.90,16,4,16,0.00
2012-11-15,53.2,38.2,26.2,28.3,25.1,22.3,97,62,31,30.07,29.83,19,4,19,0.00
2012-11-16,50.0,34.4,25.2,33.2,28.5,22.9,95,80,47,29.83,29.78,7,2,7,0.00
2012-11-17,61.2,43.1,25.9,41.0,31.8,25.7,99,69,32,29.83,29.55,22,4,22,0.00
2012-11-18,53.2,44.0,30.9,36.2,27.3,16.1,75,53,24,29.84,29.48,22,6,22,0.00
2012-11-19,60.8,48.1,28.4,32.3,25.8,12.6,78,43,29,29.84,29.69,30,9,30,0.00
2012-11-20,61.7,56.6,48.9,40.3,34.7,31.5,72,44,36,29.73,29.64,36,10,36,0.00
2012-11-21,48.9,41.0,34.0,41.8,34.7,20.3,99,79,51,29.84,29.57,15,4,15,0.33
2012-11-22,48.9,33.7,23.4,26.4,21.1,18.2,84,62,33,30.25,29.84,19,4,19,0.00
2012-11-23,57.7,44.2,24.3,27.6,22.7,14.7,83,44,25,30.21,29.85,17,4,17,0.00
2012-11-24,53.4,41.3,27.5,34.7,29.9,23.3,96,67,38,29.88,29.82,18,4,18,0.00
2012-11-25,43.7,33.2,20.7,33.5,26.2,18.9,99,78,42,30.07,29.82,11,2,11,0.00
2012-11-26,42.4,29.7,20.5,21.0,16.7,12.1,97,61,34,30.08,29.94,15,4,15,0.00
2012-11-27,44.2,39.0,27.1,22.9,18.1,13.4,63,43,37,29.99,29.89,15,5,15,0.00
2012-11-28,61.0,42.7,33.4,28.9,25.1,15.6,78,52,18,29.90,29.69,10,2,10,0.00
2012-11-29,59.9,49.6,34.2,36.2,31.0,26.1,78,50,33,29.76,29.63,18,6,18,0.00
2012-11-30,56.1,50.5,39.9,39.1,34.9,28.7,80,56,39,29.65,29.45,26,6,26,0.00
2012-12-1,58.6,43.5,31.5,36.5,32.7,29.4,96,69,34,29.59,29.55,20,5,20,0.00
2012-12-2,57.2,49.6,33.4,41.1,35.2,23.1,88,58,46,29.63,29.13,25,6,25,0.07
2012-12-3,55.8,44.0,39.2,27.4,24.2,19.9,56,46,28,29.94,29.63,21,7,21,0.00
2012-12-4,57.4,47.3,37.9,36.9,29.4,19.9,74,50,38,29.95,29.67,23,7,23,0.00
2012-12-5,56.7,44.6,25.9,39.5,23.6,6.8,71,46,16,29.91,29.55,31,7,31,0.01
2012-12-6,36.7,31.9,25.2,21.0,18.9,15.7,72,58,49,29.90,29.75,13,3,13,0.00
2012-12-7,47.3,35.4,27.9,26.7,20.8,13.5,84,57,28,29.76,29.48,18,4,18,0.00
2012-12-8,30.6,17.4,3.9,25.9,13.3,1.6,94,84,65,30.06,29.50,10,2,11,0.00
2012-12-9,30.9,16.5,-7.1,17.1,6.5,-10.0,90,66,46,30.10,29.80,18,5,18,0.00
2012-12-10,52.7,33.6,20.8,28.8,19.0,15.2,90,61,26,29.84,29.75,13,2,13,0.05
2012-12-11,45.9,38.0,17.6,28.3,25.3,15.0,96,62,47,29.76,29.42,19,5,19,0.00
2012-12-12,41.4,32.7,26.2,32.3,28.7,25.6,99,86,67,29.69,29.41,9,1,9,0.00
2012-12-13,45.3,33.6,24.3,27.4,20.1,15.7,99,61,33,29.73,29.62,19,6,19,0.00
2012-12-14,52.2,30.8,18.1,25.5,19.1,14.7,89,65,29,29.65,29.51,14,3,14,0.00
2012-12-15,43.9,26.8,13.6,24.4,16.3,11.6,94,68,33,29.68,29.47,24,4,24,0.00
2012-12-16,43.2,33.6,27.0,17.9,14.2,9.2,65,45,27,29.55,29.39,21,5,21,0.00
2012-12-17,47.1,36.5,31.5,28.7,20.4,9.1,79,52,36,29.46,29.21,19,6,19,0.00
2012-12-18,40.8,27.0,14.0,15.5,8.7,2.8,80,49,22,29.73,29.45,24,4,24,0.00
2012-12-19,36.7,25.3,14.9,10.6,7.3,4.4,79,48,27,29.85,29.73,17,5,17,0.00
2012-12-20,46.6,36.3,27.1,16.2,11.8,7.1,43,36,26,29.85,29.75,22,7,22,0.00
2012-12-21,55.4,36.5,17.2,19.8,11.7,4.3,81,40,14,29.85,29.73,17,4,17,0.00
2012-12-22,20.3,14.3,12.2,12.7,10.3,9.1,89,84,69,29.88,29.71,11,4,11,0.00
2012-12-23,47.7,18.3,5.2,20.5,9.7,2.6,91,74,28,29.80,29.70,17,3,17,0.00
2012-12-24,6.1,1.8,-6.7,2.9,-3.1,-10.4,86,79,73,30.11,29.77,17,4,17,0.00
2012-12-25,30.9,6.1,-6.9,11.7,-0.3,-10.3,85,76,39,30.10,29.76,8,1,8,0.00
2012-12-26,25.5,8.8,1.9,8.4,2.1,-1.9,86,75,45,29.76,29.60,5,1,5,0.00
2012-12-27,43.2,14.4,-5.4,21.6,8.3,-8.6,93,78,35,29.78,29.69,6,1,6,0.00
2012-12-28,54.0,27.3,12.4,30.2,16.2,11.0,96,68,25,29.90,29.77,12,3,12,0.07
2012-12-29,41.0,27.5,15.4,16.8,13.5,9.3,81,56,33,29.90,29.81,21,5,21,0.00
2012-12-30,42.1,22.7,7.5,23.5,13.1,5.0,92,69,36,29.93,29.86,15,3,15,0.00
2012-12-31,41.4,23.4,7.9,16.6,12.9,4.6,92,65,33,29.99,29.89,13,3,13,0.00
2013-1-1,45.7,24.3,7.9,21.6,14.6,5.4,91,68,33,30.16,29.96,10,2,10,0.00